This is the latest recevied weather packets stored in our database for station/object K6CED. If no packets are shown the sender has not sent any weather packets the latest 10 day(s).
| Time | Temp. | Humidity | Pressure | Rain* | Wind** | Luminosity | Snow |
|---|---|---|---|---|---|---|---|
| 1787950632 | 38.33° C | 34% | 1014.5 hPa | 0 mm | - | 724 W/m² | - |
| 1787950328 | 38.33° C | 33% | 1014.7 hPa | 0 mm | - | 723 W/m² | - |
| 1787950024 | 37.78° C | 35% | 1014.5 hPa | 0 mm | - | 722 W/m² | - |
| 1787949719 | 38.33° C | 36% | 1014.4 hPa | 0 mm | - | 722 W/m² | - |
| 1787949418 | 39.44° C | 35% | 1014.5 hPa | 0 mm | - | 722 W/m² | - |
| 1787949113 | 38.89° C | 35% | 1014.4 hPa | 0 mm | - | 728 W/m² | - |
| 1787948810 | 39.44° C | 33% | 1014.5 hPa | 0 mm | - | 732 W/m² | - |
| 1787948509 | 38.89° C | 35% | 1014.4 hPa | 0 mm | - | 740 W/m² | - |
| 1787948205 | 38.89° C | 34% | 1014.6 hPa | 0 mm | - | 749 W/m² | - |
| 1787947903 | 38.89° C | 35% | 1014.7 hPa | 0 mm | - | 756 W/m² | - |
| 1787947599 | 38.89° C | 33% | 1014.7 hPa | 0 mm | - | 769 W/m² | - |
| 1787947292 | 38.89° C | 33% | 1014.6 hPa | 0 mm | - | 776 W/m² | - |
| 1787946992 | 39.44° C | 32% | 1014.8 hPa | 0 mm | - | 787 W/m² | - |
| 1787946685 | 39.44° C | 31% | 1014.8 hPa | 0 mm | - | 796 W/m² | - |
| 1787946379 | 38.89° C | 30% | 1014.6 hPa | 0 mm | - | 807 W/m² | - |
| 1787946074 | 39.44° C | 29% | 1015 hPa | 0 mm | - | 812 W/m² | - |
| 1787945769 | 39.44° C | 27% | 1014.8 hPa | 0 mm | - | 820 W/m² | - |
| 1787945464 | 38.89° C | 29% | 1014.8 hPa | 0 mm | - | 823 W/m² | - |
| 1787945159 | 38.89° C | 31% | 1015.1 hPa | 0 mm | - | 821 W/m² | - |
| 1787944857 | 37.78° C | 32% | 1014.9 hPa | 0 mm | - | 827 W/m² | - |
| 1787944551 | 38.33° C | 31% | 1015.2 hPa | 0 mm | - | 828 W/m² | - |
| 1787944247 | 38.33° C | 31% | 1015.3 hPa | 0 mm | - | 828 W/m² | - |
| 1787943947 | 38.33° C | 32% | 1015.4 hPa | 0 mm | - | 826 W/m² | - |
| 1787943643 | 38.33° C | 32% | 1015.2 hPa | 0 mm | - | 825 W/m² | - |
| 1787943342 | 38.33° C | 33% | 1015.5 hPa | 0 mm | - | 823 W/m² | - |
* Rain latest hour (hover to see other rain measurements)
** Current wind speed in m/s (hover to see current wind gust speed)